Location: Unspecified
(0.0000°N, 0.0000°E)
Time: 20:32:10
(UTC+00:00)

METEOR M2 - Visible Passes

Search period start: 15 May 2026 00:00
Search period end: 25 May 2026 00:00
Orbit: 816 x 825 km, 98.5° (Epoch: 15 May)

Date Brightness Start Highest point End Pass type
(mag) Time Alt. Az. Time Alt. Az. Time Alt. Az.
15 May ? 03:56:03 10° N 04:01:08 78° NW 04:01:08 78° NW visible
16 May ? 03:35:32 10° NNE 03:40:14 56° ENE 03:40:14 56° ENE visible
17 May ? 03:15:24 10° NE 03:19:18 31° E 03:19:18 31° E visible
17 May ? 04:56:51 10° NW 04:59:58 16° WNW 05:00:41 15° W visible
18 May ? 02:55:52 10° ENE 02:58:24 18° E 02:58:24 18° E visible
18 May ? 04:34:54 10° NNW 04:39:22 28° WNW 04:39:45 27° W visible
19 May ? 04:13:38 10° N 04:18:44 49° WNW 04:18:50 48° W visible
20 May ? 03:52:47 10° N 03:57:54 82° NNW 03:57:54 82° NNW visible
21 May ? 03:32:18 10° NNE 03:36:59 52° E 03:36:59 52° E visible
22 May ? 03:12:15 10° NE 03:16:02 29° E 03:16:02 29° E visible
22 May ? 04:53:21 10° NW 04:56:43 17° WNW 04:57:24 17° W visible
23 May ? 02:52:49 10° ENE 02:55:07 16° E 02:55:07 16° E visible
23 May ? 04:31:31 10° NNW 04:36:06 30° WNW 04:36:29 30° W visible
24 May ? 04:10:18 10° N 04:15:28 53° WNW 04:15:32 53° W visible
